Regional Weather Roundup
Issued by NWS

Home | Current Version | Previous Version | Graphics & Text | Print | Product List | Glossary On
Versions: 1 2 3 4 5 6 7 8 9 10 11 12 13 14 15 16 17 18 19 20 21 22 23 24 25 26 27 28 29 30 31 32 33 34 35 36 37 38 39 40 41 42 43 44 45 46 47 48 49 50
000
ASUS43 KMKX 271800
RWRWI

WISCONSIN REGIONAL WEATHER ROUNDUP
NATIONAL WEATHER SERVICE MILWAUKEE/SULLIVAN WI
100 PM CDT MON APR 27 2015

NOTE: "FAIR" INDICATES FEW OR NO CLOUDS BELOW 12,000 FEET WITH NO
SIGNIFICANT WEATHER AND/OR OBSTRUCTIONS TO VISIBILITY.

WIZ001-002-006>008-014>016-023>028-271900-
NORTHWEST WISCONSIN

CITY           SKY/WX    TMP DP  RH WIND       PRES   REMARKS
SUPERIOR ARPT  SUNNY     58  32  36 E6        30.22F
ASHLAND        SUNNY     59  34  39 N8        30.22F
6HR MIN TEMP:  30; 6HR MAX TEMP:  59;

HAYWARD        SUNNY     62  26  25 NW7       30.19F
6HR MIN TEMP:  29; 6HR MAX TEMP:  62;

SIREN          SUNNY     62  25  24 N7G20     30.22F
CUMBERLAND     SUNNY     59  28  31 N12       30.21F
RICE LAKE      SUNNY     61  30  31 N12       30.21F
CHETEK         SUNNY     60  33  35 NW9       30.20F
LADYSMITH      SUNNY     61  30  31 N9G16     30.20F
EAU CLAIRE     NOT AVBL
MENOMONIE      SUNNY     62  27  26 NW8       30.20F
NEW RICHMOND   SUNNY     63  25  23 NW9       30.22F
OSCEOLA        SUNNY     62  30  29 NW9       30.25F
$$

WIZ003>005-009-010-017-018-271900-
NORTH CENTRAL WISCONSIN

CITY           SKY/WX    TMP DP  RH WIND       PRES   REMARKS
MANITOWISH WTR SUNNY     55  30  37 N9        30.16F
ARBOR VITAE    SUNNY     59  30  33 N14G23    30.15S
WOODRUFF       SUNNY     59  30  33 N14G23    30.15S
RHINELANDER    SUNNY     60  30  32 NW12G18   30.15S
6HR MIN TEMP:  37; 6HR MAX TEMP:  60;

EAGLE RIVER    SUNNY     59  26  28 N12G20    30.14S
LAND O LAKES   SUNNY     56  26  32 N15       30.15F
PHILLIPS       SUNNY     59  31  35 N9        30.16F
TOMAHAWK       SUNNY     59  28  31 N9G18     30.16S
MEDFORD        SUNNY     59  33  37 NW9G16    30.16F
MERRILL        SUNNY     60  31  33 N10G20    30.14S
$$

WIZ029-030-035-036-043>047-271900-
CENTRAL WISCONSIN

CITY           SKY/WX    TMP DP  RH WIND       PRES   REMARKS
WAUSAU         SUNNY     60  29  30 N7        30.12F
6HR MIN TEMP:  38; 6HR MAX TEMP:  61;

MOSINEE        SUNNY     61  30  31 N9        30.15F
MARSHFIELD     SUNNY     62  31  31 N15G23    30.15F
6HR MIN TEMP:  38; 6HR MAX TEMP:  62;

STEVENS POINT  SUNNY     59  30  34 N12       30.14F
WAUPACA        SUNNY     63  29  28 NW5       30.13F
WAUTOMA        NOT AVBL
WISC RAPIDS    SUNNY     61  28  28 N15G23    30.15F
6HR MIN TEMP:  39; 6HR MAX TEMP:  63;

CAMP DOUGLAS   NOT AVBL
$$

WIZ011>013-019>022-031-037>040-048>050-271900-
NORTHEAST WISCONSIN

CITY           SKY/WX    TMP DP  RH WIND       PRES   REMARKS
ANTIGO         SUNNY     58  31  35 NW10      30.13F
SHAWANO        SUNNY     62  31  31 E3        30.13S
OCONTO         SUNNY     52  35  51 E10       30.14R
STURGEON BAY   SUNNY     52  34  50 N10       30.15S
6HR MIN TEMP:  39; 6HR MAX TEMP:  52;

GREEN BAY      SUNNY     56  35  45 CALM      30.14S
6HR MIN TEMP:  41; 6HR MAX TEMP:  57;

MANITOWOC      NOT AVBL
APPLETON       MOSUNNY   57  30  35 N14       30.13F
CLINTONVILLE   MOSUNNY   59  30  33 W3        30.12F
OSHKOSH        MOSUNNY   57  36  45 E10       30.13F
6HR MIN TEMP:  41; 6HR MAX TEMP:  57;

$$

WIZ032>034-041-042-053>061-271900-
SOUTHWEST WISCONSIN

CITY           SKY/WX    TMP DP  RH WIND       PRES   REMARKS
LA CROSSE      SUNNY     62  34  35 W10       30.17F
6HR MIN TEMP:  40; 6HR MAX TEMP:  62;

SPARTA         SUNNY     61  29  30 NW10G20   30.17F
VIROQUA        SUNNY     59  31  35 N8        30.17F
BOSCOBEL       SUNNY     63  32  31 N7G22     30.16F
6HR MIN TEMP:  33; 6HR MAX TEMP:  64;

PRAIRIE DU CHI SUNNY     59  30  33 NW9       30.17F
PLATTEVILLE    SUNNY     58  32  38 NW7G17    30.16S
$$

WIZ056-057-062-063-064-067-068-271900-
SOUTH CENTRAL WISCONSIN

CITY           SKY/WX    TMP DP  RH WIND       PRES   REMARKS
REEDSBURG      SUNNY     59  34  39 NW9       30.14F
BARABOO/DELLS  SUNNY     59  30  32 N10G18    30.14S
LONE ROCK      NOT AVBL
MINERAL POINT  SUNNY     59  30  33 N8        30.14F
MADISON        MOSUNNY   61  34  36 N9G20     30.12F
6HR MIN TEMP:  37; 6HR MAX TEMP:  62;

MIDDLETON      SUNNY     61  29  29 N12G21    30.13F
WATERTOWN      SUNNY     58  35  42 N14       30.12S
MONROE         SUNNY     59  32  36 N14G21    30.13S
JANESVILLE     MOSUNNY   61  30  31 N12G17    30.12F
$$

WIZ051-052-058>065-066-070>072-271900-
SOUTHEAST WISCONSIN

CITY           SKY/WX    TMP DP  RH WIND       PRES   REMARKS
MILWAUKEE      MOSUNNY   48  34  58 NE15      30.14S
6HR MIN TEMP:  42; 6HR MAX TEMP:  51;

WAUKESHA       MOSUNNY   55  34  44 N12G23    30.12F
MILWAUKEE/TIMM SUNNY     54  32  43 E10       30.13S
RACINE         SUNNY     51  35  54 NE13      30.14F
6HR MIN TEMP:  43; 6HR MAX TEMP:  52;

BURLINGTON     SUNNY     55  33  42 N15       30.11F
KENOSHA        SUNNY     55  35  47 N10G20    30.12S
6HR MIN TEMP:  40; 6HR MAX TEMP:  56;

FOND DU LAC    MOSUNNY   57  34  41 NE15      30.13F
6HR MIN TEMP:  40; 6HR MAX TEMP:  57;

SHEBOYGAN      SUNNY     52  35  52 NE16      30.13F
6HR MIN TEMP:  40; 6HR MAX TEMP:  55;

WEST BEND      MOSUNNY   55  32  41 N12       30.11F
JUNEAU         SUNNY     56  33  41 N13G21    30.13F
$$

LSZ147-162-271900-
LAKE SUPERIOR

STATION/POSITION TIME  TEMP    WIND        PRES    WAVE
                       AIR SEA DIR/SP/G            HT/PER
                 (UTC) (F)     (DEG/KT/KT) (MB)    (FT/S)
W MID LAKE BUOY  1650   36 35  190/  4/  6 1025.2F   0
DEVILS ISLAND    1700   45     110/  3/  4 1024.4F
PORT WING        1700   40     330/  2/  4 1024.0F
SAXON HARBOR     1740   44        CALM     1023.7F
$$

LMZ867-665-643>646-271900-
LAKE MICHIGAN

STATION/POSITION TIME  TEMP    WIND        PRES    WAVE
                       AIR SEA DIR/SP/G            HT/PER
                 (UTC) (F)     (DEG/KT/KT) (MB)    (FT/S)
CHAMBERS ISLAND  1700   44      30/ 17/ 22 1020.3F
NORTHPORT PIER   1700   43     350/ 12/ 14 1020.3F
KEWAUNEE LAKESHO 1700   44      60/  5/  8 1020.1R
SHEBOYGAN LAKESH 1700   42      40/ 14/ 16 1021.4R
PORT WASHINGTON  1740   45      50/ 13/ 16 1021.0S
MILWAUKEE LAKESH 1700   42      50/  9/ 11   N/A
KENOSHA   LAKESH 1700   44      40/ 13/ 14 1020.3F
$$

TC  - TEMPERATURE IN CELSIUS
VSB - VISIBILITY IN STATUTE MILES
WCI - WIND CHILL INDEX
HX  - HEAT INDEX



USA.gov is the U.S. government's official web portal to all federal, state and local government web resources and services.